Home > Weather > Ahvaz > Past weeks

Flag for Iran Past Weather in Ahvaz, Iran — Yesterday and Last 2 Weeks

Now
109 °F

Sunny.


Feels Like: 105 °F
Forecast: 98 / 124 °F
Wind: 5 mph from West

Location: Ahwaz

Current Time: Jun 30, 2016 at 10:16:25 PM

Latest Report: Jun 30, 2016 at 9:30 PM


Visibility: 10 mi

Pressure: 29.42 "Hg

Humidity: 11%

Dew Point: 45 °F

Location of AhvazLocation

Past Weather in Ahvaz — Graph

°F

Ahvaz Temperature Yesterday

Maximum temperature yesterday: 120 °F (at 5:00 PM)
Minimum temperature yesterday: 86 °F (at 6:30 AM)
Average temperature yesterday: 106 °F

High & Low Weather Summary for the Past Weeks

 TemperatureHumidityPressure
High122 °F (Jun 30, 4:00 PM)63% (Jun 30, 6:30 AM)29.68 "Hg (Jun 30, 6:30 AM)
Low81 °F (Jun 17, 4:23 AM)7% (Jun 30, 4:00 PM)29.36 "Hg (Jun 27, 5:30 PM)
Average103 °F20%29.48 "Hg
* Reported Jun 15 8:30 PM — Jun 30 9:00 PM, Ahvaz, Weather by CustomWeather, © 2016

Note: Actual official high and low records may vary slightly from our data, if they occured in-between our weather recording intervals... More about our weather records

Advertising

Ahvaz Weather History for the Previous 24 Hours

Scroll right to see more
 ConditionsComfort  
Time TempWeatherWind HumidityBarometerVisibility
9:00 PM
Thu, Jun 30
111 °FSunny.5 mph10%29.42 "Hg10 mi
8:30 PM111 °FSunny.5 mph11%29.42 "Hg10 mi
8:00 PM113 °FSunny.5 mph9%29.42 "Hg10 mi
7:30 PM115 °FSunny.5 mph11%29.42 "Hg10 mi
7:00 PM117 °FSunny.5 mph10%29.42 "Hg10 mi
6:30 PM118 °FSunny.5 mph9%29.42 "Hg10 mi
6:00 PM120 °FSunny.7 mph7%29.42 "Hg10 mi
5:30 PM120 °FSunny.7 mph7%29.45 "Hg10 mi
5:00 PM120 °FSunny.7 mph8%29.45 "Hg10 mi
4:30 PM120 °FSunny.7 mph8%29.45 "Hg10 mi
4:00 PM122 °FSunny.7 mph7%29.45 "Hg10 mi
3:30 PM120 °FSunny.7 mph8%29.47 "Hg10 mi
3:00 PM120 °FSunny.7 mph10%29.47 "Hg10 mi
2:30 PM118 °FSunny.9 mph11%29.47 "Hg10 mi
2:00 PM118 °FSunny.5 mph12%29.47 "Hg10 mi
1:30 PM117 °FClear.5 mph13%29.50 "Hg5 mi
1:00 PM115 °FClear.5 mph15%29.50 "Hg5 mi
12:30 PM113 °FClear.5 mph16%29.50 "Hg4 mi
12:00 PM113 °FClear.2 mph19%29.50 "Hg4 mi
11:30 AM111 °FClear.2 mph18%29.50 "Hg4 mi
11:00 AM109 °FClear.2 mph17%29.50 "Hg4 mi
10:30 AM106 °FClear.5 mph20%29.50 "Hg4 mi
10:00 AM106 °FClear.2 mph22%29.50 "Hg4 mi
9:30 AM102 °FClear.5 mph24%29.50 "Hg4 mi
9:00 AM100 °FClear.2 mph33%29.50 "Hg4 mi
8:30 AM97 °FHaze.2 mph42%29.50 "Hg3 mi
7:54 AM91 °FHaze.2 mph56%29.50 "Hg2 mi
7:30 AM90 °FHaze.5 mph59%29.50 "Hg2 mi
6:30 AM90 °FHaze.5 mph63%29.47 "Hg2 mi
5:23 AM90 °FHaze.5 mph59%29.47 "Hg3 mi
4:23 AM91 °FClear.5 mph56%29.47 "Hg4 mi
3:26 AM91 °FClear.5 mph38%29.47 "Hg5 mi
2:27 AM99 °FClear.2 mph19%29.47 "Hg5 mi
1:30 AM100 °FClear.5 mph18%29.47 "Hg5 mi
1:00 AM102 °FClear.5 mph16%29.47 "Hg5 mi
12:30 AM102 °FClear.5 mph16%29.47 "Hg5 mi
12:00 AM102 °FClear.5 mph15%29.47 "Hg5 mi
11:30 PM
Wed, Jun 29
104 °FClear.5 mph13%29.47 "Hg5 mi
10:54 PM106 °FClear.5 mph13%29.47 "Hg5 mi
10:30 PM108 °FClear.5 mph14%29.47 "Hg5 mi
Weather by CustomWeather, © 2016

See weather overviewHow to use our weather pages